ENAL

Alesund/Vigra

Airport
ICAO code
ENAL
Summary
ICAO Region
EUR
ICAO Territory
Location

Alesund/Vigra,

Elevation
69 ft
Coordinates
62° 33' 45" N , 6° 7' 11" E
KCC
Metar
ENAL 270920Z 30010KT CAVOK 21/12 Q1012

Description

Airport serving Alesund, Norway.

Climatology

Temperate Marine climate/Oceanic climate (Köppen climate classification Cfb). Moderately cool summer and comparatively warm winter with a temperature range of only 14°C. Prevailing south-westerly winds from the Atlantic Ocean.

Runways

Designator Length Width Surface Rops
7/25 2314 45 ASP Yes/Yes

Airport map

Aerial View

SKYbrary Partners:

Safety knowledge contributed by: